| time (UTC) | temp F | wind direction | speed MPH | gust MPH | rain 1hr in | rain 24hr in | rain mn in | humidity % | barometer mb |
| 20260505041526 | 58 | 61 | 0.0 | 0.0 | 0.00 | 0.00 | 0.00 | 68 | 1009.5 |
| 20260505041024 | 58 | 61 | 0.0 | 0.0 | 0.00 | 0.00 | 0.00 | 67 | 1009.5 |
| 20260505040524 | 58 | 61 | 0.0 | 0.0 | 0.00 | 0.00 | 0.00 | 67 | 1009.4 |
| 20260505040024 | 58 | 61 | 0.0 | 0.0 | 0.00 | 0.00 | 0.00 | 67 | 1009.4 |
| 20260505035526 | 58 | 61 | 0.0 | 0.0 | 0.00 | 0.00 | 0.00 | 66 | 1009.4 |
| 20260505035022 | 58 | 61 | 0.0 | 0.0 | 0.00 | 0.00 | 0.00 | 66 | 1009.3 |
| 20260505034523 | 58 | 61 | 0.0 | 0.0 | 0.00 | 0.00 | 0.00 | 66 | 1009.3 |
| 20260505034022 | 59 | 61 | 0.0 | 0.0 | 0.00 | 0.00 | 0.00 | 65 | 1009.3 |
| 20260505033522 | 59 | 61 | 0.0 | 0.0 | 0.00 | 0.00 | 0.00 | 65 | 1009.3 |
| 20260505033022 | 59 | 61 | 0.0 | 0.0 | 0.00 | 0.00 | 0.00 | 64 | 1009.3 |
| 20260505032522 | 59 | 61 | 0.0 | 0.0 | 0.00 | 0.00 | 0.00 | 64 | 1009.3 |
| 20260505032021 | 59 | 61 | 0.0 | 0.0 | 0.00 | 0.00 | 0.00 | 64 | 1009.3 |
| 20260505031522 | 59 | 61 | 0.0 | 0.0 | 0.00 | 0.00 | 0.00 | 64 | 1009.3 |
| 20260505031022 | 60 | 61 | 0.0 | 0.0 | 0.00 | 0.00 | 0.00 | 63 | 1009.3 |
| 20260505030521 | 60 | 61 | 0.0 | 0.0 | 0.00 | 0.00 | 0.00 | 63 | 1009.3 |
| 20260505030022 | 60 | 61 | 0.0 | 0.0 | 0.00 | 0.00 | 0.00 | 63 | 1009.3 |
| 20260505025522 | 60 | 61 | 0.0 | 0.0 | 0.00 | 0.00 | 0.00 | 62 | 1009.3 |
| 20260505025020 | 60 | 61 | 0.0 | 0.0 | 0.00 | 0.00 | 0.00 | 61 | 1009.4 |
| 20260505024521 | 60 | 61 | 0.0 | 0.0 | 0.00 | 0.00 | 0.00 | 61 | 1009.4 |
| 20260505024020 | 61 | 61 | 0.0 | 0.0 | 0.00 | 0.00 | 0.00 | 61 | 1009.4 |
| 20260505023520 | 61 | 61 | 0.0 | 0.0 | 0.00 | 0.00 | 0.00 | 60 | 1009.3 |
| 20260505023024 | 61 | 61 | 0.0 | 0.0 | 0.00 | 0.00 | 0.00 | 60 | 1009.3 |
| 20260505022520 | 61 | 61 | 0.0 | 0.0 | 0.00 | 0.00 | 0.00 | 59 | 1009.3 |
| 20260505022022 | 62 | 61 | 0.0 | 0.0 | 0.00 | 0.00 | 0.00 | 59 | 1009.3 |
| 20260505021527 | 62 | 61 | 0.0 | 0.0 | 0.00 | 0.00 | 0.00 | 58 | 1009.3 |
| 20260505021019 | 62 | 61 | 0.0 | 0.0 | 0.00 | 0.00 | 0.00 | 57 | 1009.3 |
| 20260505020520 | 62 | 61 | 0.0 | 0.0 | 0.00 | 0.00 | 0.00 | 56 | 1009.3 |
| 20260505020021 | 63 | 61 | 0.0 | 0.0 | 0.00 | 0.00 | 0.00 | 56 | 1009.3 |
| 20260505015519 | 63 | 61 | 0.0 | 0.0 | 0.00 | 0.00 | 0.00 | 55 | 1009.3 |
| 20260505015019 | 63 | 61 | 0.0 | 0.0 | 0.00 | 0.00 | 0.00 | 55 | 1009.0 |
| 20260505014516 | 64 | 61 | 0.0 | 0.0 | 0.00 | 0.00 | 0.00 | 54 | 1009.0 |
| 20260505014019 | 64 | 61 | 0.0 | 0.0 | 0.00 | 0.00 | 0.00 | 53 | 1009.0 |
| 20260505013516 | 64 | 61 | 0.0 | 0.0 | 0.00 | 0.00 | 0.00 | 53 | 1009.0 |
| 20260505013016 | 65 | 61 | 0.0 | 0.0 | 0.00 | 0.00 | 0.00 | 52 | 1009.0 |
| 20260505012516 | 65 | 61 | 0.0 | 0.0 | 0.00 | 0.00 | 0.00 | 52 | 1009.0 |
| 20260505012016 | 65 | 61 | 0.0 | 0.0 | 0.00 | 0.00 | 0.00 | 50 | 1008.9 |
| 20260505011518 | 66 | 61 | 0.0 | 0.0 | 0.00 | 0.00 | 0.00 | 49 | 1008.9 |
| 20260505011015 | 66 | 61 | 0.0 | 0.0 | 0.00 | 0.00 | 0.00 | 49 | 1008.9 |
| 20260505010519 | 67 | 61 | 0.0 | 0.0 | 0.00 | 0.00 | 0.00 | 48 | 1008.8 |
| 20260505010015 | 67 | 61 | 0.0 | 0.0 | 0.00 | 0.00 | 0.00 | 47 | 1008.8 |
| 20260505005514 | 67 | 61 | 0.0 | 0.0 | 0.00 | 0.00 | 0.00 | 47 | 1008.8 |
| 20260505005014 | 68 | 61 | 0.0 | 0.0 | 0.00 | 0.00 | 0.00 | 45 | 1008.5 |
| 20260505004520 | 68 | 61 | 0.0 | 0.0 | 0.00 | 0.00 | 0.00 | 46 | 1008.5 |
| 20260505004014 | 68 | 61 | 0.0 | 0.0 | 0.00 | 0.00 | 0.00 | 44 | 1008.5 |
| 20260505003516 | 69 | 61 | 0.0 | 0.0 | 0.00 | 0.00 | 0.00 | 44 | 1008.6 |
| 20260505003013 | 69 | 61 | 0.0 | 0.0 | 0.00 | 0.00 | 0.00 | 43 | 1008.6 |
| 20260505002515 | 69 | 61 | 0.0 | 0.0 | 0.00 | 0.00 | 0.00 | 43 | 1008.6 |
| 20260505002015 | 69 | 161 | 0.0 | 0.0 | 0.00 | 0.00 | 0.00 | 43 | 1008.6 |
| 20260505001513 | 69 | 161 | 0.0 | 0.0 | 0.00 | 0.00 | 0.00 | 42 | 1008.6 |
| 20260505001012 | 70 | 161 | 0.0 | 0.0 | 0.00 | 0.00 | 0.00 | 42 | 1008.6 |
| 20260505000512 | 70 | 161 | 0.0 | 0.0 | 0.00 | 0.00 | 0.00 | 41 | 1008.4 |
| 20260505000021 | 70 | 161 | 0.0 | 0.0 | 0.00 | 0.00 | 0.00 | 41 | 1008.4 |
| 20260504235512 | 70 | 161 | 0.0 | 0.0 | 0.00 | 0.00 | 0.00 | 40 | 1008.4 |
| 20260504235012 | 71 | 208 | 0.0 | 0.0 | 0.00 | 0.00 | 0.00 | 40 | 1008.4 |
| 20260504234511 | 71 | 93 | 0.0 | 0.0 | 0.00 | 0.00 | 0.00 | 40 | 1008.4 |
| 20260504234011 | 71 | 92 | 0.0 | 0.0 | 0.00 | 0.00 | 0.00 | 38 | 1008.4 |
| 20260504233512 | 72 | 92 | 0.0 | 0.0 | 0.00 | 0.00 | 0.00 | 38 | 1008.3 |
| 20260504233012 | 72 | 97 | 0.0 | 0.0 | 0.00 | 0.00 | 0.00 | 38 | 1008.3 |
| 20260504232511 | 72 | 97 | 0.0 | 0.0 | 0.00 | 0.00 | 0.00 | 37 | 1008.3 |
| 20260504232010 | 73 | 97 | 0.0 | 0.0 | 0.00 | 0.00 | 0.00 | 37 | 1008.4 |
| 20260504231511 | 73 | 80 | 0.0 | 0.0 | 0.00 | 0.00 | 0.00 | 36 | 1008.4 |
| 20260504231010 | 74 | 78 | 0.0 | 0.0 | 0.00 | 0.00 | 0.00 | 34 | 1008.4 |
| 20260504230510 | 74 | 104 | 0.0 | 0.0 | 0.00 | 0.00 | 0.00 | 34 | 1008.4 |
| 20260504230010 | 74 | 175 | 0.0 | 0.0 | 0.00 | 0.00 | 0.00 | 34 | 1008.4 |
| 20260504225509 | 75 | 136 | 0.0 | 0.0 | 0.00 | 0.00 | 0.00 | 33 | 1008.4 |
| 20260504225014 | 75 | 71 | 0.0 | 0.0 | 0.00 | 0.00 | 0.00 | 33 | 1008.3 |
| 20260504224509 | 76 | 179 | 0.0 | 0.0 | 0.00 | 0.00 | 0.00 | 31 | 1008.3 |
| 20260504224008 | 77 | 83 | 0.0 | 0.0 | 0.00 | 0.00 | 0.00 | 30 | 1008.3 |
| 20260504223509 | 78 | 117 | 0.0 | 0.0 | 0.00 | 0.00 | 0.00 | 30 | 1008.2 |
| 20260504223009 | 78 | 97 | 0.0 | 0.0 | 0.00 | 0.00 | 0.00 | 30 | 1008.2 |
| 20260504222507 | 78 | 97 | 0.0 | 0.0 | 0.00 | 0.00 | 0.00 | 30 | 1008.2 |
| 20260504222009 | 79 | 24 | 0.0 | 0.0 | 0.00 | 0.00 | 0.00 | 30 | 1008.2 |
| 20260504221508 | 79 | 296 | 0.0 | 0.0 | 0.00 | 0.00 | 0.00 | 29 | 1008.2 |
| 20260504221007 | 79 | 38 | 0.0 | 0.0 | 0.00 | 0.00 | 0.00 | 28 | 1008.2 |
| 20260504220511 | 79 | 181 | 0.0 | 0.0 | 0.00 | 0.00 | 0.00 | 30 | 1008.2 |
| 20260504220007 | 79 | 164 | 0.0 | 0.0 | 0.00 | 0.00 | 0.00 | 28 | 1008.2 |
| 20260504215506 | 79 | 48 | 0.0 | 0.0 | 0.00 | 0.00 | 0.00 | 29 | 1008.2 |
| 20260504215006 | 79 | 93 | 0.0 | 0.0 | 0.00 | 0.00 | 0.00 | 28 | 1008.2 |
| 20260504214508 | 80 | 289 | 0.0 | 0.0 | 0.00 | 0.00 | 0.00 | 28 | 1008.2 |
| 20260504214010 | 80 | 288 | 0.0 | 0.0 | 0.00 | 0.00 | 0.00 | 28 | 1008.2 |
| 20260504213505 | 80 | 289 | 0.0 | 0.0 | 0.00 | 0.00 | 0.00 | 27 | 1008.3 |
| 20260504213005 | 80 | 213 | 0.0 | 0.0 | 0.00 | 0.00 | 0.00 | 28 | 1008.3 |
| 20260504212505 | 80 | 178 | 0.0 | 0.0 | 0.00 | 0.00 | 0.00 | 28 | 1008.3 |
| 20260504212004 | 80 | 179 | 0.0 | 0.0 | 0.00 | 0.00 | 0.00 | 28 | 1008.3 |
| 20260504211505 | 80 | 359 | 0.0 | 0.0 | 0.00 | 0.00 | 0.00 | 28 | 1008.3 |
| 20260504211003 | 80 | 257 | 0.0 | 0.0 | 0.00 | 0.00 | 0.00 | 28 | 1008.3 |
| 20260504210503 | 80 | 292 | 0.0 | 0.0 | 0.00 | 0.00 | 0.00 | 28 | 1008.3 |
| 20260504210003 | 80 | 193 | 0.0 | 0.0 | 0.00 | 0.00 | 0.00 | 28 | 1008.3 |
| 20260504205503 | 80 | 42 | 0.0 | 0.0 | 0.00 | 0.00 | 0.00 | 27 | 1008.3 |
| 20260504205001 | 80 | 72 | 0.0 | 0.0 | 0.00 | 0.00 | 0.00 | 29 | 1008.4 |
| 20260504204501 | 80 | 145 | 0.0 | 0.0 | 0.00 | 0.00 | 0.00 | 28 | 1008.4 |
| 20260504204102 | 80 | 141 | 0.0 | 0.0 | 0.00 | 0.00 | 0.00 | 29 | 1008.4 |
| 20260504203559 | 80 | 97 | 0.0 | 0.0 | 0.00 | 0.00 | 0.00 | 29 | 1008.4 |
| 20260504203106 | 80 | 97 | 0.0 | 0.0 | 0.00 | 0.00 | 0.00 | 29 | 1008.7 |
| 20260504202559 | 80 | 117 | 0.0 | 0.0 | 0.00 | 0.00 | 0.00 | 30 | 1008.7 |
| 20260504202059 | 79 | 164 | 0.0 | 0.0 | 0.00 | 0.00 | 0.00 | 29 | 1008.8 |
| 20260504201621 | 79 | 96 | 0.0 | 0.0 | 0.00 | 0.00 | 0.00 | 28 | 1008.8 |
| 20260504201058 | 80 | 124 | 0.0 | 0.0 | 0.00 | 0.00 | 0.00 | 28 | 1008.8 |
| 20260504200557 | 79 | 196 | 0.0 | 0.0 | 0.00 | 0.00 | 0.00 | 30 | 1008.9 |
| 20260504200057 | 80 | 195 | 0.0 | 0.0 | 0.00 | 0.00 | 0.00 | 30 | 1008.9 |
| 20260504195555 | 79 | 61 | 0.0 | 0.0 | 0.00 | 0.00 | 0.00 | 30 | 1008.9 |
| 20260504195054 | 79 | 209 | 0.0 | 0.0 | 0.00 | 0.00 | 0.00 | 31 | 1009.3 |
| 20260504194557 | 79 | 217 | 0.0 | 0.0 | 0.00 | 0.00 | 0.00 | 32 | 1009.3 |
| 20260504194054 | 78 | 117 | 0.0 | 0.0 | 0.00 | 0.00 | 0.00 | 31 | 1009.3 |
| 20260504193553 | 79 | 213 | 0.0 | 0.0 | 0.00 | 0.00 | 0.00 | 28 | 1009.6 |
| 20260504193051 | 78 | 232 | 0.0 | 0.0 | 0.00 | 0.00 | 0.00 | 32 | 1009.6 |
| 20260504192551 | 78 | 260 | 0.0 | 0.0 | 0.00 | 0.00 | 0.00 | 30 | 1009.6 |
| 20260504192051 | 77 | 247 | 0.0 | 0.0 | 0.00 | 0.00 | 0.00 | 30 | 1009.9 |
| 20260504191558 | 77 | 313 | 0.0 | 0.0 | 0.00 | 0.00 | 0.00 | 32 | 1009.9 |
| 20260504191051 | 77 | 72 | 0.0 | 0.0 | 0.00 | 0.00 | 0.00 | 30 | 1009.9 |
| 20260504190550 | 77 | 284 | 0.0 | 0.0 | 0.00 | 0.00 | 0.00 | 30 | 1010.0 |
| 20260504190105 | 77 | 323 | 0.0 | 0.0 | 0.00 | 0.00 | 0.00 | 33 | 1010.0 |
| 20260504185551 | 77 | 113 | 0.0 | 0.0 | 0.00 | 0.00 | 0.00 | 33 | 1010.0 |
| 20260504185048 | 77 | 291 | 0.0 | 0.0 | 0.00 | 0.00 | 0.00 | 34 | 1010.4 |
| 20260504184603 | 76 | 285 | 1.0 | 0.0 | 0.00 | 0.00 | 0.00 | 33 | 1010.4 |
| 20260504184047 | 76 | 285 | 1.0 | 0.0 | 0.00 | 0.00 | 0.00 | 31 | 1010.4 |
| 20260504183547 | 77 | 209 | 0.0 | 0.0 | 0.00 | 0.00 | 0.00 | 32 | 1010.5 |
| 20260504183047 | 77 | 131 | 0.0 | 0.0 | 0.00 | 0.00 | 0.00 | 31 | 1010.5 |
| 20260504182546 | 77 | 148 | 0.0 | 0.0 | 0.00 | 0.00 | 0.00 | 33 | 1010.5 |
| 20260504182046 | 77 | 95 | 0.0 | 0.0 | 0.00 | 0.00 | 0.00 | 32 | 1010.7 |
| 20260504181548 | 76 | 86 | 0.0 | 0.0 | 0.00 | 0.00 | 0.00 | 35 | 1010.7 |
| 20260504181045 | 76 | 56 | 0.0 | 0.0 | 0.00 | 0.00 | 0.00 | 33 | 1010.7 |
| 20260504180544 | 76 | 342 | 0.0 | 0.0 | 0.00 | 0.00 | 0.00 | 36 | 1010.9 |
| 20260504180045 | 75 | 350 | 0.0 | 0.0 | 0.00 | 0.00 | 0.00 | 32 | 1010.9 |
| 20260504175544 | 75 | 196 | 0.0 | 0.0 | 0.00 | 0.00 | 0.00 | 31 | 1010.9 |
| 20260504175043 | 75 | 342 | 0.0 | 0.0 | 0.00 | 0.00 | 0.00 | 33 | 1011.0 |
| 20260504174545 | 75 | 217 | 0.0 | 0.0 | 0.00 | 0.00 | 0.00 | 33 | 1011.0 |
| 20260504174042 | 75 | 167 | 1.0 | 0.0 | 0.00 | 0.00 | 0.00 | 32 | 1011.0 |
| 20260504173541 | 74 | 188 | 1.0 | 0.0 | 0.00 | 0.00 | 0.00 | 30 | 1011.3 |
| 20260504173041 | 75 | 220 | 0.0 | 0.0 | 0.00 | 0.00 | 0.00 | 31 | 1011.3 |
| 20260504172540 | 75 | 109 | 0.0 | 0.0 | 0.00 | 0.00 | 0.00 | 29 | 1011.3 |
| 20260504172040 | 75 | 155 | 0.0 | 0.0 | 0.00 | 0.00 | 0.00 | 31 | 1011.4 |
| 20260504171539 | 74 | 182 | 0.0 | 0.0 | 0.00 | 0.00 | 0.00 | 33 | 1011.4 |
| 20260504171038 | 73 | 208 | 0.0 | 0.0 | 0.00 | 0.00 | 0.00 | 36 | 1011.4 |
| 20260504170541 | 73 | 208 | 0.0 | 0.0 | 0.00 | 0.00 | 0.00 | 33 | 1011.5 |
| 20260504151017 | 65 | 104 | 0.0 | 0.0 | 0.00 | 0.00 | 0.00 | 39 | 1012.7 |
| 20260504150516 | 65 | 107 | 0.0 | 0.0 | 0.00 | 0.00 | 0.00 | 40 | 1013.0 |
| 20260504141007 | 61 | 119 | 0.0 | 0.0 | 0.00 | 0.00 | 0.00 | 49 | 1013.1 |
| 20260504140508 | 61 | 119 | 0.0 | 0.0 | 0.00 | 0.00 | 0.00 | 50 | 1013.2 |
| 20260504130559 | 57 | 299 | 0.0 | 0.0 | 0.00 | 0.00 | 0.00 | 58 | 1013.6 |
| 20260504110537 | 45 | 282 | 0.0 | 0.0 | 0.00 | 0.00 | 0.00 | 83 | 1014.0 |
| 20260504100532 | 46 | 282 | 0.0 | 0.0 | 0.00 | 0.00 | 0.00 | 82 | 1014.0 |
| 20260504081534 | 45 | 282 | 0.0 | 0.0 | 0.00 | 0.00 | 0.00 | 83 | 1014.5 |
| 20260504081024 | 45 | 282 | 0.0 | 0.0 | 0.00 | 0.00 | 0.00 | 83 | 1014.5 |
| 20260504080524 | 45 | 282 | 0.0 | 0.0 | 0.00 | 0.00 | 0.00 | 83 | 1014.4 |
| 20260504050510 | 42 | 282 | 0.0 | 0.0 | 0.00 | 0.00 | 0.00 | 80 | 1014.8 |
| 20260504050010 | 42 | 282 | 0.0 | 0.0 | 0.00 | 0.00 | 0.00 | 80 | 1014.8 |
| 20260504045509 | 42 | 282 | 0.0 | 0.0 | 0.00 | 0.00 | 0.00 | 80 | 1014.8 |
| 20260504045010 | 42 | 282 | 0.0 | 0.0 | 0.00 | 0.00 | 0.00 | 79 | 1014.8 |
| 20260504044509 | 42 | 282 | 0.0 | 0.0 | 0.00 | 0.00 | 0.00 | 79 | 1014.8 |
| 20260504044008 | 42 | 282 | 0.0 | 0.0 | 0.00 | 0.00 | 0.00 | 79 | 1014.8 |
| 20260504043508 | 42 | 282 | 0.0 | 0.0 | 0.00 | 0.00 | 0.00 | 79 | 1014.7 |
| 20260504043009 | 42 | 282 | 0.0 | 0.0 | 0.00 | 0.00 | 0.00 | 78 | 1014.7 |
| 20260504042507 | 42 | 282 | 0.0 | 0.0 | 0.00 | 0.00 | 0.00 | 78 | 1014.7 |
| 20260504042006 | 42 | 282 | 0.0 | 0.0 | 0.00 | 0.00 | 0.00 | 78 | 1014.8 |